Everett, WA
on Monday, December 10, 2012

Monday
Previous Day Next Day
Daily Summary
 ActualAverageRecord
Temperature
Mean Temperature °F °F  
Max Temperature 43°F 45°F 57°F (1950)
Min Temperature 39°F 35°F 9°F (1972)
Degree Days
Heating Degree Days 24    
Moisture
Dew Point 39°F   
Average Humidity 92    
Maximum Humidity 100    
Minimum Humidity 87    
Precipitation
Precipitation 0.00 in in in ()
Wind
Wind Speed 3 mph   
Max Wind Speed 12 mph   
Max Gust Speed mph   
Visibility 4 miles   
Events Fog   
Averages and records for this station are not official NWS values.
Key: T is trace of precipitation, MM is missing value
Source: NWS Daily Summary
Seasonal Weather Averages
Time(PST)TemperatureDew PointHumidity Pressure Visibility Wind DirectionWind SpeedGust SpeedPrecipitationEvents Conditions
12:08 AM 41.0°F 39.2°F 93% 30.36 in 0.8 miles Calm Calm - N/A   Mist
12:15 AM 41.0°F 39.2°F 93% 30.36 in 1.2 miles Calm Calm - N/A   Overcast
12:21 AM 41.0°F 39.2°F 93% 30.36 in 3.0 miles Calm Calm - N/A   Overcast
12:53 AM 41.0°F 37.9°F 89% 30.37 in 10.0 miles East 3.5 mph - N/A   Overcast
1:53 AM 41.0°F 37.9°F 89% 30.40 in 10.0 miles Calm Calm - N/A   Overcast
2:17 AM 41.0°F 39.2°F 93% 30.40 in 3.0 miles North 3.5 mph - N/A   Overcast
2:20 AM 41.0°F 39.2°F 93% 30.40 in 1.5 miles NNW 4.6 mph - N/A   Overcast
2:29 AM 41.0°F 39.2°F 93% 30.40 in 0.8 miles Variable 4.6 mph - N/A   Overcast
2:35 AM 41.0°F 39.2°F 93% 30.41 in 2.0 miles Calm Calm - N/A   Overcast
2:44 AM 41.0°F 39.2°F 93% 30.41 in 0.8 miles Calm Calm - N/A   Mist
2:53 AM 41.0°F 39.0°F 93% 30.42 in 0.5 miles Calm Calm - N/A Fog Fog
3:07 AM 41.0°F 39.2°F 93% 30.41 in 0.2 miles NNE 6.9 mph - N/A Fog Fog
3:17 AM 41.0°F 39.2°F 93% 30.41 in 0.2 miles NNE 5.8 mph - N/A Fog Fog
3:49 AM 39.2°F 39.2°F 100% 30.40 in 0.5 miles NNE 5.8 mph - N/A Fog Fog
3:53 AM 39.2°F 39.2°F 100% 30.40 in 0.5 miles NNE 3.5 mph - N/A Fog Fog
4:03 AM 39.2°F 39.2°F 100% 30.41 in 2.5 miles Calm Calm - N/A   Overcast
4:10 AM 39.2°F 39.2°F 100% 30.40 in 9.0 miles NNE 3.5 mph - N/A   Overcast
4:33 AM 39.2°F 37.4°F 93% 30.40 in 10.0 miles ENE 3.5 mph - N/A   Overcast
4:53 AM 39.2°F 37.4°F 93% 30.40 in 9.0 miles Calm Calm - N/A   Overcast
5:05 AM 39.2°F 37.4°F 93% 30.39 in 8.0 miles ESE 5.8 mph - N/A   Overcast
5:53 AM 39.9°F 37.9°F 93% 30.42 in 1.8 miles ESE 3.5 mph - N/A   Overcast
6:07 AM 39.2°F 37.4°F 93% 30.41 in 0.8 miles South 3.5 mph - N/A   Overcast
6:33 AM 39.2°F 37.4°F 93% 30.40 in 1.5 miles Calm Calm - N/A   Overcast
6:39 AM 39.2°F 37.4°F 93% 30.41 in 3.0 miles SSE 4.6 mph - N/A   Overcast
6:49 AM 39.2°F 37.4°F 93% 30.40 in 1.8 miles SSE 4.6 mph - N/A   Overcast
6:53 AM 39.0°F 37.9°F 96% 30.42 in 2.0 miles SSE 3.5 mph - N/A   Overcast
7:53 AM 39.9°F 37.9°F 93% 30.41 in 0.5 miles Calm Calm - N/A Fog Fog
8:11 AM 39.2°F 37.4°F 93% 30.40 in 6.0 miles Calm Calm - N/A   Overcast
8:53 AM 39.9°F 37.9°F 93% 30.41 in 5.0 miles Calm Calm - N/A   Overcast
9:53 AM 41.0°F 37.9°F 89% 30.42 in 10.0 miles Calm Calm - N/A   Overcast
10:53 AM 42.1°F 39.0°F 89% 30.42 in 10.0 miles Calm Calm - N/A   Overcast
11:00 AM 42.8°F 39.2°F 87% 30.40 in 10.0 miles Calm Calm - N/A   Overcast
11:48 AM 42.8°F 39.2°F 87% 30.39 in 3.0 miles ESE 4.6 mph - N/A   Overcast
11:53 AM 42.1°F 39.0°F 89% 30.40 in 4.0 miles ESE 4.6 mph - N/A   Overcast
11:58 AM 42.8°F 39.2°F 87% 30.38 in 2.0 miles ESE 4.6 mph - N/A   Overcast
12:53 PM 42.1°F 39.0°F 89% 30.38 in 2.0 miles SSE 8.1 mph - N/A   Overcast
1:51 PM 42.8°F 39.2°F 87% 30.34 in 1.0 miles SSE 8.1 mph - N/A   Overcast
1:53 PM 43.0°F 39.9°F 89% 30.35 in 1.0 miles SSE 8.1 mph - N/A   Overcast
2:53 PM 43.0°F 41.0°F 93% 30.35 in 1.5 miles SSW 4.6 mph - N/A   Overcast
3:00 PM 42.8°F 39.2°F 87% 30.34 in 5.0 miles SSW 4.6 mph - N/A   Overcast
3:53 PM 43.0°F 39.9°F 89% 30.34 in 5.0 miles South 5.8 mph - N/A   Overcast
4:53 PM 43.0°F 39.9°F 89% 30.33 in 3.0 miles SSE 4.6 mph - N/A   Mostly Cloudy
5:00 PM 42.8°F 41.0°F 93% 30.31 in 3.0 miles Calm Calm - N/A   Overcast
5:53 PM 43.0°F 41.0°F 93% 30.30 in 3.0 miles SSE 4.6 mph - N/A   Overcast
6:53 PM 43.0°F 39.9°F 89% 30.27 in 3.0 miles SSE 8.1 mph - N/A   Mostly Cloudy
7:53 PM 43.0°F 41.0°F 93% 30.24 in 7.0 miles South 8.1 mph - N/A   Overcast
8:51 PM 42.8°F 39.2°F 87% 30.19 in 9.0 miles SSE 9.2 mph - N/A   Mostly Cloudy
8:53 PM 43.0°F 39.9°F 89% 30.21 in 9.0 miles SSE 9.2 mph - N/A   Mostly Cloudy
9:53 PM 43.0°F 39.9°F 89% 30.17 in 8.0 miles SSE 6.9 mph - N/A   Overcast
10:01 PM 42.8°F 39.2°F 87% 30.15 in 7.0 miles SSE 9.2 mph - N/A   Overcast
10:13 PM 42.8°F 39.2°F 87% 30.13 in 7.0 miles SSE 6.9 mph - N/A   Overcast
10:53 PM 43.0°F 39.9°F 89% 30.14 in 5.0 miles SSE 10.4 mph - N/A   Overcast
11:24 PM 42.8°F 41.0°F 93% 30.11 in 7.0 miles South 6.9 mph - N/A   Overcast
11:41 PM 42.8°F 41.0°F 93% 30.09 in 8.0 miles South 10.4 mph - N/A   Overcast
11:53 PM 43.0°F 39.9°F 89% 30.09 in 10.0 miles South 11.5 mph - N/A   Mostly Cloudy
Moon Phase
Dec. 10 Dec. 13 Dec. 20 Dec. 28 Jan. 04
Sunrise:07:48 AM (PST) Moon Rise:04:29 AM (PST)12/10
Sunset:04:16 PM (PST) Moon Set:02:16 PM (PST)12/10

Copyright © 2014 The Weather Underground, Inc.